SXM-8

operational
NORAD ID: 48838 Int'l Des: 2021-049 Owner: SIRX Country: US
HEOCIRCULARGSOGEO

Über SXM-8

Beschreibung wird geladen...

Live-Position

3D-Globus wird geladen...

Nächste Überflüge

Höhenverlauf

Altitude vs Time

uPlot chart will show altitude changes over time

Zweizeiliger Elementsatz

1 48838U 21049A 26071.12707757 -.00000204 00000-0 00000+0 0 9995
2 48838 0.0304 48.1923 0004560 358.9911 83.1836 1.00271366 17629
Epoch: 12. März 2026 • Age: 22 hours

Aktueller Status

Höhe 35767.2 km
Geschwindigkeit 3.08 km/s
Subsatellitenpunkt -0.02°S, 85.14°W
Startdatum 6. Juni 2021
Alter 4.7 years
Typ other

Technische Details

Klassifizierung Payload
Masse 7000.00 kg
Trockenmasse 2884.00 kg
Gesamtmasse 7000.00 kg
Länge 5.20 m
Durchmesser 5.60 m
Spannweite 30.00 m
Form Box+2 panels
Hersteller MAXSS
Bus-Typ LS-1300
Phasenstatus In Orbit
Besitzer/Staat SIRX/US

Große Konstellationen

Loading constellations...